Home > Weather > Suzhou > Past weeks

Flag for China Weather for the Past 2 Weeks in Suzhou, Jiangsu, China

Now
72 °F

Clear.


Feels Like: 75 °F
Forecast: 68 / 76 °F
Wind: 17 mph from Southeast

Location: Shanghai Hongqiao Airport

Current Time: May 1, 2016 at 8:42:45 PM

Latest Report: May 1, 2016 at 8:00 PM


Visibility: 10 mi

Pressure: 29.77 "Hg

Humidity: 69%

Dew Point: 61 °F

Location of SuzhouLocation

Historic Weather in Suzhou — Graph

°F

Suzhou Temperature Yesterday

Maximum temperature yesterday: 82 °F (at 1:30 PM)
Minimum temperature yesterday: 61 °F (at 3:00 AM)
Average temperature yesterday: 71 °F

High & Low Weather Summary for the Past Weeks

 TemperatureHumidityPressure
High84 °F (May 1, 12:30 PM)100% (Apr 20, 7:30 PM)30.21 "Hg (Apr 20, 7:30 PM)
Low54 °F (Apr 18, 12:30 AM)27% (Apr 19, 3:00 PM)29.68 "Hg (Apr 16, 7:00 PM)
Average64 °F71%29.92 "Hg
* Reported Apr 16 7:00 PM — May 1 7:30 PM, Suzhou, Weather by CustomWeather, © 2016

Note: Actual official high and low records may vary slightly from our data, if they occured in-between our weather recording intervals... More about our weather records

Advertising

Suzhou Weather History for the Previous 24 Hours

Scroll right to see more
 ConditionsComfort  
Time TempWeatherWind HumidityBarometerVisibility
7:30 PM
Sun, May 1
73 °FClear.15 mph69%29.77 "Hg10 mi
7:00 PM73 °FPassing clouds.13 mph69%29.77 "HgN/A
6:30 PM75 °FSunny.13 mph69%29.77 "Hg10 mi
6:00 PM75 °FSunny.13 mph65%29.77 "Hg10 mi
5:30 PM77 °FSunny.17 mph57%29.77 "Hg10 mi
5:00 PM79 °FSunny.15 mph54%29.77 "Hg10 mi
4:30 PM81 °FPassing clouds.13 mph51%29.77 "HgN/A
4:00 PM81 °FSunny.15 mph51%29.77 "Hg10 mi
3:00 PM84 °FPassing clouds.13 mph43%29.77 "HgN/A
2:30 PM84 °FSunny.13 mph40%29.80 "Hg10 mi
2:00 PM84 °FSunny.13 mph37%29.80 "Hg10 mi
1:30 PM84 °FPassing clouds.10 mph40%29.80 "HgN/A
12:30 PM84 °FPassing clouds.8 mph37%29.83 "HgN/A
11:30 AM82 °FPassing clouds.10 mph42%29.86 "HgN/A
11:00 AM81 °FPassing clouds.8 mph45%29.86 "HgN/A
10:30 AM81 °FSunny.10 mph45%29.86 "Hg10 mi
10:00 AM79 °FPassing clouds.8 mph48%29.86 "HgN/A
9:30 AM79 °FPassing clouds.8 mph51%29.86 "HgN/A
9:00 AM75 °FPassing clouds.8 mph54%29.89 "HgN/A
8:30 AM73 °FPassing clouds.8 mph61%29.89 "HgN/A
8:00 AM72 °FSunny.8 mph61%29.89 "Hg10 mi
7:30 AM68 °FSunny.8 mph69%29.89 "Hg10 mi
7:00 AM66 °FSunny.6 mph73%29.89 "Hg10 mi
6:30 AM64 °FSunny.3 mph73%29.86 "Hg10 mi
6:00 AM63 °FSunny.6 mph77%29.86 "Hg10 mi
5:30 AM63 °FSunny.6 mph77%29.86 "Hg10 mi
5:00 AM61 °FClear.3 mph77%29.86 "Hg10 mi
4:30 AM61 °FClear.3 mph83%29.83 "Hg10 mi
4:00 AM63 °FClear.3 mph77%29.83 "Hg10 mi
3:30 AM63 °FClear.6 mph77%29.83 "Hg10 mi
3:00 AM63 °FClear.6 mph77%29.83 "Hg10 mi
2:30 AM63 °FClear.6 mph77%29.83 "Hg10 mi
2:00 AM63 °FClear.6 mph77%29.83 "Hg10 mi
1:30 AM63 °FClear.6 mph77%29.86 "Hg10 mi
1:00 AM63 °FClear.6 mph77%29.86 "Hg10 mi
12:30 AM64 °FClear.6 mph68%29.86 "Hg10 mi
12:00 AM64 °FClear.8 mph68%29.86 "Hg10 mi
11:30 PM
Sat, Apr 30
64 °FClear.8 mph68%29.86 "Hg10 mi
11:00 PM64 °FClear.8 mph64%29.86 "Hg10 mi
10:30 PM64 °FClear.10 mph64%29.86 "Hg10 mi
10:00 PM66 °FClear.8 mph60%29.86 "Hg10 mi
9:30 PM66 °FClear.10 mph56%29.86 "Hg10 mi
9:00 PM68 °FClear.10 mph53%29.86 "Hg10 mi
8:30 PM68 °FClear.13 mph49%29.86 "Hg10 mi
8:00 PM70 °FClear.13 mph46%29.86 "Hg10 mi
Weather by CustomWeather, © 2016

See weather overviewHow to use our weather pages